Temp
23 23 23 23 24 24 24 24 24 24 23 23 23 22 22 22 22 22 22 21 21 21 21 21 21 21 21 21 21 21 21 21 21 20 20 20 20 20 20 20 20 20 19 19 19 19 19 19 19 19 19 18 18 18 18 18 18 17 17 17 17 17 16 14 13 13 15 16 15 16 16 15 16 17 16 16 17 17 16 16 16 16 15 15 15
23 23 23 23 24 25 25 24 24 23 23 23 23 22 22 22 22 22 22 21 21 21 21 21 21 21 21 21 21 21 21 21 21 21 20 20 20 20 20 20 20 20 19 19 19 19 19 19 19 19 19 18 18 18 18 18 18 17 17 17 17 17 17 16 14 13 14 15 15 15 16 15 15 16 17 16 16 16 16 16 16 16 15 15 15
23 23 22 23 24 25 24 23 23 23 23 23 23 22 22 22 22 22 22 22 21 21 21 21 21 21 21 21 21 21 21 21 21 21 21 20 20 20 20 20 20 20 20 19 19 19 19 19 19 19 18 18 18 18 18 18 18 18 18 17 17 17 17 17 15 14 13 14 15 15 15 15 15 16 16 16 16 16 15 15 15 15 15 15 15
23 22 22 23 24 23 22 22 22 23 23 23 23 22 22 22 22 22 22 22 22 21 21 21 21 21 21 21 21 21 21 21 21 21 21 20 20 20 20 20 20 20 20 20 19 19 19 19 19 19 18 18 18 18 18 18 18 18 17 17 17 17 17 17 16 15 13 13 14 14 14 14 15 15 16 16 16 15 15 15 15 15 15 15 15
23 22 22 22 22 21 21 21 22 23 23 23 23 22 22 22 22 22 22 22 22 22 22 22 22 22 21 22 21 21 21 21 21 21 21 21 21 21 21 20 20 20 20 20 19 19 19 19 19 19 18 18 18 18 18 18 17 17 17 17 17 17 17 16 16 15 14 13 13 14 14 14 13 14 15 15 15 15 14 14 15 15 15 15 15
23 22 22 21 19 19 21 23 23 23 23 23 23 23 23 22 22 22 22 22 22 22 22 22 22 22 22 22 22 22 22 21 21 21 21 21 21 21 21 20 20 20 20 20 20 19 19 19 19 19 18 18 18 18 18 17 17 17 17 17 17 16 16 16 15 15 14 13 13 13 14 13 13 13 15 14 14 14 14 14 14 14 14 15 15
23 22 21 20 18 19 22 23 23 22 22 23 23 23 23 22 22 22 22 22 22 22 22 22 22 22 22 22 22 22 22 21 21 21 21 21 21 21 21 20 20 20 20 20 20 19 19 19 19 19 18 18 18 18 18 17 17 17 17 17 16 16 15 15 15 14 14 13 13 13 13 13 13 13 14 14 13 13 14 14 14 14 14 14 14
22 21 20 19 19 20 21 22 22 21 21 22 23 22 23 22 22 22 22 22 22 22 22 22 22 22 22 22 22 22 21 21 21 21 21 21 21 21 21 21 21 20 20 20 20 19 19 19 19 19 18 18 18 18 18 17 17 17 17 17 16 16 15 15 14 14 13 13 13 13 13 13 13 13 13 13 13 13 14 14 14 14 14 14 14
21 21 20 19 19 20 20 20 21 20 21 22 22 22 22 22 22 22 22 22 23 22 22 23 23 22 22 22 22 21 21 21 21 21 21 21 21 21 21 21 21 20 20 20 20 19 19 19 19 19 19 18 18 18 18 17 17 17 17 17 16 16 15 15 14 14 13 13 13 13 13 13 13 13 13 13 13 13 14 14 13 14 14 14 14
21 21 20 19 20 20 19 20 20 20 20 21 21 22 22 22 22 22 22 22 23 22 22 22 22 22 22 22 21 21 21 21 21 21 21 21 21 21 21 21 21 20 20 20 20 20 19 19 19 19 19 18 18 18 18 17 17 17 17 17 16 16 15 14 14 14 13 13 13 13 13 13 13 13 13 13 13 13 14 13 13 14 13 13 13
21 20 19 19 19 20 19 19 19 20 20 20 21 22 21 20 21 22 22 22 22 22 22 22 22 22 22 22 21 21 21 21 21 21 21 21 21 21 21 21 21 20 20 20 20 20 20 19 19 19 19 18 18 18 17 17 17 17 17 17 16 16 15 14 14 14 13 13 13 13 13 13 13 13 13 13 13 13 13 13 13 13 13 13 13
20 19 19 19 19 20 19 19 19 19 19 20 21 22 21 20 21 21 21 22 22 22 22 22 22 22 22 22 21 21 21 21 21 21 21 21 21 21 21 21 20 20 20 20 20 19 19 19 19 19 19 18 18 18 17 17 17 17 17 17 16 16 16 15 14 14 13 13 13 13 13 13 13 13 13 13 13 13 13 13 13 13 13 13 13
20 19 19 19 20 19 19 18 19 19 19 20 22 22 21 20 20 20 21 22 22 22 22 22 22 22 22 22 22 21 21 21 21 21 21 21 21 21 21 20 20 20 20 19 19 19 19 19 19 18 18 18 18 17 17 17 17 17 17 17 17 17 16 16 15 14 14 13 13 13 13 13 13 13 13 13 13 13 13 13 13 13 13 13 13
20 19 19 19 19 19 19 19 19 19 19 20 21 22 21 20 19 19 20 21 22 22 22 22 22 22 22 22 22 22 22 21 21 21 21 21 21 21 20 20 20 20 19 19 19 19 19 18 18 17 17 17 17 16 16 16 16 16 16 16 16 17 16 16 15 15 14 13 13 13 13 13 13 13 13 13 13 13 12 13 13 13 12 12 12
19 19 18 18 19 19 19 19 20 19 19 19 20 20 20 20 20 19 19 20 21 22 22 22 22 22 22 22 22 22 22 22 21 21 21 21 21 20 20 20 20 19 19 19 19 19 18 18 17 17 17 17 16 16 16 16 15 15 16 16 16 16 16 16 15 15 14 13 13 12 13 13 13 13 14 14 13 13 13 12 12 12 12 12 12
18 18 18 18 18 19 19 19 19 19 19 19 19 20 21 20 20 19 19 20 21 22 22 22 22 22 22 22 22 22 22 22 21 21 21 20 20 20 20 19 19 19 19 19 19 18 18 17 16 16 16 16 16 16 16 15 15 15 15 16 16 16 16 16 15 14 14 13 13 13 13 13 13 14 14 14 14 14 13 12 12 11 11 11 12
18 18 18 18 18 18 18 18 18 18 19 19 19 20 20 20 20 20 20 20 21 22 22 22 22 22 22 22 22 22 22 21 21 20 20 19 19 19 19 19 19 19 19 19 18 17 17 17 16 16 16 16 16 16 15 15 15 15 15 15 15 15 15 15 14 14 13 13 13 13 14 14 14 14 15 15 15 14 12 11 11 12 11 12 12
18 18 18 18 18 19 18 18 18 18 19 20 20 20 20 20 20 20 20 20 21 22 22 22 23 23 22 22 21 21 21 21 20 19 19 19 19 19 19 19 18 18 18 18 17 17 17 17 16 16 16 16 16 15 15 15 15 15 15 15 14 14 15 14 13 13 14 14 14 15 14 14 14 15 15 15 15 14 12 11 11 12 11 12 12
18 18 18 19 19 19 18 18 19 19 19 20 20 20 20 20 20 20 20 21 21 22 22 22 22 22 21 21 20 20 20 20 19 19 19 19 19 19 18 18 18 18 17 17 17 17 17 17 16 16 16 15 15 15 15 15 15 15 15 14 13 13 13 13 13 13 13 14 14 14 14 15 15 15 14 14 14 13 12 12 12 11 11 12 12
19 19 19 19 19 18 18 19 19 20 20 20 19 19 19 20 20 19 20 20 21 21 21 21 21 20 20 20 20 20 20 19 19 19 19 19 18 18 17 17 17 17 17 16 16 16 16 16 16 16 15 15 15 15 15 15 15 14 14 13 13 12 12 12 12 12 11 11 11 12 12 13 13 13 13 13 13 13 13 12 12 11 11 12 12
19 19 19 19 19 18 18 19 20 20 20 19 19 19 19 19 19 19 20 20 20 20 20 19 20 20 20 20 19 19 19 19 19 19 19 18 18 17 17 17 16 16 16 16 16 16 16 16 16 15 15 15 15 15 15 15 14 13 13 12 12 12 11 11 12 11 10 10 10 10 10 11 11 11 12 13 13 13 13 12 12 11 11 12 12
19 19 19 19 19 19 19 19 19 19 19 19 19 20 20 20 20 20 21 20 20 19 18 18 19 20 19 18 18 19 18 18 18 18 18 18 17 17 16 16 15 15 15 15 15 15 15 15 15 15 15 15 15 15 15 14 13 13 12 12 11 11 11 11 11 10 9 9 9 9 10 10 10 10 11 12 13 13 12 12 12 12 12 12 12
19 19 19 19 19 19 19 19 19 19 19 20 20 20 20 20 20 21 21 21 19 17 17 18 19 18 18 18 18 18 18 18 18 18 18 17 17 16 15 15 15 15 15 15 15 15 14 14 14 14 15 15 15 15 14 13 12 12 12 11 11 10 11 11 10 9 8 9 9 9 9 9 9 9 10 11 13 13 12 11 12 12 12 12 13
19 19 19 19 19 20 20 20 20 20 20 21 21 21 20 20 20 20 20 20 18 17 17 18 19 18 17 18 18 17 17 18 17 17 17 16 16 15 15 14 14 14 14 14 14 14 14 14 14 14 14 14 14 14 13 12 12 11 11 11 11 11 11 10 10 8 8 8 8 9 9 9 9 9 9 11 12 12 11 12 13 13 12 12 13
19 19 19 19 19 20 20 20 20 20 20 21 21 21 20 20 20 19 19 19 18 16 17 17 17 17 17 17 17 17 17 17 17 16 16 15 15 14 14 14 14 14 14 14 13 13 13 13 13 14 13 13 13 13 12 11 11 11 10 10 11 10 10 10 9 8 8 8 8 8 8 8 9 9 9 10 11 11 11 12 13 13 12 12 13
19 19 19 19 20 20 20 20 20 19 19 20 20 20 20 20 19 18 18 18 17 16 17 18 17 16 17 17 17 17 17 16 16 15 14 14 14 14 14 14 14 13 13 13 13 13 13 13 13 13 13 13 12 12 11 11 11 10 10 10 10 10 9 9 8 8 7 7 7 8 8 8 8 9 9 9 10 11 11 11 12 12 12 12 12
19 19 20 20 20 20 20 20 20 19 19 19 19 19 19 19 19 18 18 17 17 17 18 18 17 16 16 17 17 17 16 15 14 14 14 14 14 14 14 14 13 13 13 13 13 13 13 12 12 12 12 12 12 11 11 11 11 10 10 10 10 9 9 9 8 8 7 7 7 7 8 8 8 9 9 9 10 10 10 10 11 12 12 12 12
19 19 19 19 19 19 19 19 19 19 19 19 18 18 18 18 18 18 18 18 18 18 18 18 17 17 17 17 17 16 15 14 14 14 14 14 14 14 14 13 13 13 13 13 13 13 12 12 12 12 12 12 11 11 11 11 11 10 10 10 10 9 9 9 9 8 8 7 7 7 8 8 8 8 8 9 9 10 10 10 10 11 11 11 12
18 18 18 19 19 19 19 20 20 19 19 18 17 17 17 17 17 18 18 18 19 19 18 18 18 18 17 17 16 16 15 14 14 14 14 14 13 13 13 12 12 13 13 13 13 12 12 12 12 11 11 11 11 11 10 10 10 10 10 10 10 10 9 9 9 8 8 8 7 7 8 8 8 8 8 8 9 9 9 10 10 10 11 11 12
19 18 19 19 20 21 20 19 18 18 17 17 17 16 16 17 18 18 18 18 18 18 18 18 18 18 17 17 16 16 15 14 14 13 13 13 13 12 12 12 12 13 13 12 12 12 12 12 11 11 10 10 10 9 9 9 9 10 10 10 10 9 9 9 8 8 8 8 8 7 7 7 8 8 8 8 9 9 9 9 9 10 10 11 11
20 20 20 20 21 20 19 18 17 17 17 17 17 17 17 17 17 17 17 17 17 17 17 17 17 17 17 16 16 15 14 14 13 13 12 12 12 12 12 12 12 12 12 12 12 11 11 11 10 10 9 9 9 8 9 9 9 9 9 9 9 9 8 8 8 8 8 8 8 8 7 7 7 8 8 8 8 9 9 9 9 9 10 10 11
22 21 21 20 20 19 18 17 17 17 17 17 17 17 17 16 15 15 16 16 16 16 16 17 16 16 16 15 15 14 13 13 12 12 12 11 11 11 12 12 12 12 12 12 11 11 10 10 9 9 9 9 8 8 9 9 9 8 8 8 8 8 8 8 8 8 8 7 7 8 8 7 7 8 8 8 8 8 8 9 9 9 9 10 11
21 21 20 19 18 18 18 17 17 17 17 17 17 17 17 16 15 14 14 14 15 15 15 15 15 15 14 14 13 13 12 12 11 11 12 12 12 12 12 12 12 12 12 11 11 10 9 9 9 8 8 8 9 8 8 8 8 8 8 8 7 7 8 7 8 8 8 7 7 7 7 7 7 8 8 8 8 8 8 8 8 8 9 9 10
20 20 19 19 18 18 18 17 17 17 18 17 17 17 17 16 16 15 13 13 13 13 13 13 13 13 13 12 12 12 12 11 11 12 12 12 12 12 12 12 11 11 11 11 10 9 9 9 8 8 8 8 8 8 8 8 8 8 8 7 7 7 7 7 8 8 8 8 7 7 7 7 7 7 7 8 8 8 8 8 8 8 8 9 9
20 19 19 19 19 19 18 18 18 18 17 17 17 17 16 16 15 15 15 13 12 11 11 11 12 12 12 12 12 12 12 12 12 12 12 12 12 12 11 11 11 11 10 10 10 9 9 9 8 8 8 8 8 8 8 8 8 7 7 7 7 7 7 7 8 8 8 8 7 7 7 7 7 7 7 7 8 8 8 8 8 8 8 8 9
19 20 20 20 20 20 19 19 18 18 18 18 17 17 16 15 15 15 14 13 12 11 11 11 11 11 12 12 12 12 12 12 12 12 12 12 11 11 11 11 10 10 10 10 9 9 9 8 8 8 8 8 8 8 8 8 8 7 7 7 7 7 7 7 7 7 8 7 7 7 7 7 7 7 7 7 8 8 8 8 8 8 8 8 8
20 20 21 21 21 20 20 19 19 19 18 18 17 16 15 15 14 13 13 12 11 11 12 11 11 11 12 12 12 12 12 12 11 11 11 11 11 11 10 10 10 10 10 9 9 9 9 8 8 8 8 8 8 7 8 8 8 8 8 7 7 6 7 7 7 7 7 7 7 7 7 7 7 7 7 7 7 8 8 8 8 8 8 8 8
20 21 21 20 20 20 20 19 19 18 18 18 17 16 15 14 13 13 12 12 12 12 12 11 11 12 12 12 12 12 12 11 11 11 11 11 11 11 10 10 10 9 9 9 9 9 9 8 8 8 8 7 7 7 7 8 8 8 8 7 6 6 7 7 7 7 7 7 7 7 7 7 7 7 7 7 7 7 8 8 8 8 8 8 8
20 20 20 20 20 20 20 20 19 18 18 17 16 15 14 14 13 12 12 12 12 12 12 11 12 12 13 12 12 12 12 11 11 11 10 10 11 10 10 10 9 9 9 9 9 8 8 8 8 8 8 7 7 7 7 7 7 7 7 7 6 6 7 7 7 7 7 7 7 7 7 7 7 7 7 7 7 7 7 8 8 8 8 8 8
20 20 20 20 19 19 19 19 19 18 17 17 16 15 14 13 12 12 12 13 12 11 11 12 12 12 12 12 12 12 12 11 11 11 10 10 10 10 10 9 9 9 9 9 9 8 8 8 8 7 7 7 7 7 7 7 7 7 7 6 6 6 7 7 7 7 7 7 7 7 7 7 7 7 7 7 7 7 7 7 8 8 8 8 8
19 19 19 19 19 18 18 18 18 17 17 16 15 14 14 13 13 14 13 13 12 11 11 12 12 12 12 11 12 12 12 12 11 11 10 10 10 10 9 9 9 9 9 9 9 8 8 8 7 7 7 7 7 7 7 7 7 7 6 6 6 6 6 6 7 7 7 7 7 7 7 7 7 7 7 7 8 8 7 7 8 8 8 8 8
19 19 18 18 18 18 18 17 17 17 16 15 15 14 14 14 14 14 13 12 12 11 11 11 12 12 12 11 12 12 12 11 11 11 10 10 10 10 9 9 9 9 9 9 9 8 8 8 7 7 7 7 6 6 7 7 7 7 6 6 6 6 6 6 6 6 7 7 7 7 7 7 7 7 7 8 8 8 8 7 7 8 8 8 8
18 18 18 18 17 17 17 16 16 15 15 14 14 14 14 14 14 13 12 12 12 11 11 11 12 12 11 12 12 11 11 11 11 11 10 10 10 10 9 9 9 9 8 8 8 8 8 8 7 7 7 6 6 6 6 6 6 6 6 6 6 6 6 6 6 6 7 7 7 7 7 7 8 8 8 8 8 8 8 7 7 7 7 8 8
18 17 17 17 16 16 16 16 15 15 14 14 14 14 14 13 13 12 12 12 12 12 12 12 12 12 11 11 11 10 10 10 11 10 10 10 10 10 9 9 9 9 8 8 8 8 8 8 7 7 6 6 6 6 6 6 6 6 6 6 5 5 5 6 6 6 6 6 6 7 7 7 7 8 8 8 8 8 8 7 7 7 7 7 8
17 17 16 16 16 16 15 15 15 14 14 14 14 14 14 14 13 13 13 13 13 12 12 12 12 12 11 11 11 11 10 10 10 10 10 10 10 9 9 9 9 9 8 8 8 8 8 7 7 7 6 6 6 6 6 6 6 6 6 6 5 5 5 5 5 6 6 6 6 6 6 7 7 7 7 8 8 8 8 7 7 7 7 7 7
16 16 16 16 15 15 15 15 14 14 14 14 14 14 14 13 13 13 13 13 13 12 12 12 12 11 11 11 11 11 11 11 10 10 10 10 9 9 9 9 9 9 8 8 8 8 7 7 7 6 6 6 5 5 6 6 6 6 6 6 5 5 5 5 5 6 6 6 6 6 6 7 7 7 7 8 8 8 8 8 7 7 7 7 7
16 16 16 15 15 15 14 14 14 14 14 14 13 13 13 13 13 13 13 12 12 12 12 12 11 11 11 11 11 11 11 11 10 10 10 10 9 9 9 9 9 8 8 8 8 7 7 7 7 6 6 5 5 5 5 6 5 5 5 5 5 5 5 5 5 5 6 6 6 6 6 6 7 7 7 8 8 8 8 8 8 7 7 7 7
16 15 15 15 15 15 14 14 14 14 14 14 13 13 13 13 13 13 12 12 12 12 12 12 12 11 11 11 11 11 11 11 10 10 10 10 9 9 9 9 9 8 8 8 8 7 7 7 6 6 6 5 5 5 5 5 5 5 5 5 5 5 5 5 5 5 5 6 6 6 6 6 6 6 7 7 7 8 8 8 8 7 7 7 7
15 15 15 15 15 14 14 14 14 14 14 14 13 13 13 13 13 13 13 13 13 13 13 13 12 12 12 11 11 11 11 11 10 10 10 10 9 9 9 9 9 9 8 8 8 7 7 7 6 6 6 5 5 5 5 5 5 5 5 5 5 5 5 5 5 5 5 5 6 6 6 6 6 6 6 7 7 7 8 8 8 8 8 7 7
15 15 15 15 14 14 14 14 14 14 13 13 13 13 13 13 13 13 13 13 13 13 13 13 13 13 12 12 11 11 11 11 11 11 10 10 10 9 9 9 9 9 8 8 8 7 7 7 6 6 6 6 5 5 5 5 5 5 5 5 5 5 5 5 5 5 5 5 5 5 6 6 6 6 6 7 7 7 7 7 8 8 8 7 7
15 15 15 15 14 14 14 14 13 13 13 13 13 13 13 13 13 13 13 13 13 13 13 13 13 13 13 12 12 11 11 11 11 11 11 10 10 9 9 9 9 9 8 8 8 7 7 7 7 6 6 6 6 5 5 5 5 5 5 5 5 5 5 5 5 5 5 5 5 5 6 6 6 6 6 6 7 7 7 7 7 7 7 7 7
Height
772 775 777 780 782 785 787 790 792 796 798 800 801 802 803 805 806 808 809 810 811 812 812 812 812 813 813 814 815 815 816 816 816 815 815 815 816 816 816 816 816 815 814 813 813 813 813 814 814 815 815 815 815 814 813 813 812 811 811 810 809 809 808 807 805 800 797 797 796 795 794 792 790 788 786 783 781 780 779 777 775 773 771 768 766
769 772 774 776 778 780 783 786 791 796 799 800 801 802 802 803 804 805 806 808 809 810 810 810 810 811 811 811 812 813 814 814 814 814 814 814 814 814 815 814 814 813 812 811 811 811 811 812 812 813 813 813 813 812 811 811 810 809 809 808 807 807 806 805 803 800 796 794 794 792 791 790 788 786 784 781 778 777 775 773 772 770 768 766 763
765 768 770 771 774 777 781 787 792 796 799 800 801 801 801 802 803 803 804 806 807 807 808 808 808 809 809 809 810 811 812 812 812 812 812 812 812 812 812 812 811 811 810 809 809 809 809 809 810 810 811 811 810 810 809 809 808 807 806 805 804 803 803 802 800 798 795 792 792 791 789 788 785 784 782 779 777 775 773 770 769 767 765 763 760
764 765 766 768 772 778 785 793 796 797 798 799 799 800 801 802 802 802 803 804 804 805 805 806 806 807 807 807 807 808 809 810 810 810 810 810 809 809 809 809 809 809 808 807 807 807 807 807 807 808 808 808 808 807 807 807 806 805 803 803 802 800 800 799 797 796 794 792 790 789 787 785 782 781 779 777 774 773 770 768 766 764 761 759 757
761 761 763 767 773 779 786 793 795 794 795 796 797 799 800 800 800 800 801 802 803 803 803 803 804 804 804 804 805 805 806 807 807 807 808 807 807 807 807 807 806 806 806 805 804 804 805 805 805 805 806 806 805 805 805 804 803 802 801 800 799 798 797 796 795 794 793 791 788 786 785 784 781 778 776 774 771 769 767 765 763 761 758 755 753
757 759 764 770 775 780 784 786 788 790 792 793 795 797 798 799 800 800 801 801 801 801 801 801 801 801 802 802 802 802 803 804 804 805 805 805 805 805 804 804 804 803 803 802 802 802 802 802 802 803 803 803 803 803 802 802 801 799 798 797 796 795 794 793 792 791 790 789 787 784 783 781 779 776 773 772 769 765 763 760 758 757 755 751 748
757 762 768 772 775 780 784 786 789 794 795 794 796 796 797 798 799 800 801 800 799 799 799 799 799 799 799 799 800 800 800 801 802 803 803 803 803 802 802 801 801 801 800 799 799 799 800 800 800 800 800 800 800 800 800 799 798 797 795 794 794 792 792 791 790 789 788 786 785 783 780 779 777 773 771 770 768 765 761 757 752 751 751 748 744
758 762 766 768 770 775 781 786 791 796 798 798 798 797 797 796 796 798 799 798 797 797 796 797 797 797 797 797 797 798 798 799 800 801 801 801 801 800 799 799 798 798 797 797 797 797 798 798 798 798 798 798 798 798 798 797 796 794 793 792 791 790 789 788 787 786 785 783 782 781 779 776 774 771 768 767 765 763 761 758 750 745 745 743 740
754 757 759 761 763 767 774 783 789 792 795 796 796 795 795 795 793 793 794 795 795 795 794 795 795 795 795 795 796 796 797 798 798 799 799 798 798 798 797 797 796 795 795 794 795 795 795 795 795 795 795 795 795 795 795 794 793 792 791 790 789 787 786 786 785 784 783 781 779 777 776 774 771 769 766 764 761 759 758 757 750 743 741 738 734
748 750 753 756 760 765 773 781 786 787 788 789 791 792 793 793 790 789 790 792 792 792 793 793 793 793 793 793 794 794 795 796 796 796 796 796 796 795 794 794 793 793 792 792 792 792 793 793 792 792 792 792 792 792 792 792 791 789 788 787 786 785 784 783 782 781 780 778 776 774 773 771 769 767 763 760 758 756 754 752 747 742 738 733 727
744 747 751 756 760 765 773 778 781 783 783 784 786 787 788 788 787 787 787 788 789 790 790 790 790 791 791 791 792 792 793 793 794 794 794 793 793 792 792 791 791 790 790 789 790 790 790 790 789 789 789 789 789 789 789 788 788 787 786 784 783 782 781 780 779 778 777 775 773 772 770 767 765 763 761 757 755 753 750 748 745 740 736 731 723
743 747 751 755 757 761 768 772 773 773 774 776 778 778 779 780 782 783 784 785 786 787 788 788 788 788 788 789 790 790 790 791 791 791 791 790 790 790 789 789 788 788 787 787 788 788 787 787 787 787 786 786 786 786 785 785 784 783 783 781 780 779 778 778 776 775 774 772 770 769 766 763 761 759 758 755 752 749 747 744 742 738 733 729 723
741 744 745 748 749 753 760 764 766 766 766 768 770 770 773 776 778 780 781 783 784 785 785 786 786 786 786 787 787 788 788 789 789 789 788 788 788 787 787 786 786 785 785 785 786 785 785 784 784 784 784 784 783 783 782 781 780 780 779 778 777 776 775 775 773 772 771 770 768 765 762 760 758 756 754 752 749 746 742 739 736 733 728 724 718
736 739 741 742 744 748 752 756 759 761 761 763 765 768 771 773 776 778 780 781 781 781 782 783 783 783 784 784 785 786 786 786 786 786 786 786 786 785 784 784 783 783 783 783 783 782 782 782 781 782 782 781 781 779 778 777 777 776 775 774 773 773 772 771 770 769 768 767 765 761 758 757 755 752 750 749 746 742 738 734 730 727 722 717 712
735 739 741 742 744 747 749 751 752 754 758 763 766 769 771 772 773 776 777 778 778 778 779 780 780 781 782 782 783 783 783 784 784 783 784 783 783 783 782 782 782 781 781 781 781 780 779 780 779 779 779 778 777 776 775 774 774 773 772 771 770 769 769 768 767 766 765 763 761 758 755 753 751 748 746 745 742 738 735 731 727 721 715 709 703
732 735 736 738 742 744 746 748 751 755 761 766 769 770 770 769 770 772 774 775 775 775 776 776 777 778 779 780 780 781 781 781 781 781 781 781 781 781 781 780 780 780 779 779 778 777 777 777 777 777 777 775 775 774 772 771 771 770 768 767 766 766 765 764 764 763 761 759 757 754 752 749 747 745 743 741 738 734 730 727 722 716 709 702 695
728 731 732 735 740 742 744 748 754 760 764 765 766 767 766 766 767 769 771 772 772 772 773 773 775 776 777 777 778 778 779 779 780 780 779 779 779 779 779 779 779 778 778 777 776 775 775 775 775 775 774 773 772 771 770 769 768 767 766 764 763 762 761 761 760 759 757 755 752 750 747 745 744 742 740 737 734 730 727 723 717 710 704 697 688
726 729 730 732 736 740 743 748 754 759 762 762 763 763 763 764 765 766 768 768 769 769 770 771 773 774 774 775 776 776 777 778 778 778 778 778 778 778 778 777 777 777 776 775 774 774 774 774 774 773 772 771 770 769 768 767 765 764 763 762 761 760 759 758 756 754 753 750 748 745 743 741 740 738 736 733 731 728 724 718 711 705 699 691 682
724 726 727 729 734 739 743 748 752 755 756 757 759 760 761 761 762 764 765 766 767 767 768 769 770 771 772 774 775 776 777 777 777 777 777 777 776 776 777 776 776 775 774 773 772 772 772 772 772 771 770 769 767 766 765 764 763 762 762 761 760 758 757 756 754 751 749 746 744 741 739 738 737 735 732 729 726 723 718 713 707 700 692 682 675
721 724 727 729 735 739 742 746 748 750 752 754 757 760 761 761 763 764 765 765 765 765 765 766 767 768 769 770 772 774 775 775 775 776 775 775 775 775 775 775 774 773 772 771 771 770 770 770 770 770 768 766 765 764 763 763 762 761 760 760 759 757 756 755 753 750 747 744 742 739 736 734 733 731 728 725 721 716 712 707 701 694 685 674 666
723 726 729 731 735 739 741 743 745 747 751 755 758 759 760 760 761 763 763 763 763 763 763 764 764 765 767 768 770 772 773 773 774 774 774 774 774 774 774 773 772 771 770 770 769 769 769 769 768 767 766 764 763 762 761 761 760 760 759 759 758 757 755 753 750 748 746 743 740 738 735 732 729 727 724 720 716 710 705 699 693 686 677 666 656
726 728 730 732 735 738 740 743 745 749 752 754 755 756 755 755 755 756 757 757 758 760 762 764 764 764 765 768 770 770 771 771 772 772 772 773 773 773 773 772 771 770 769 768 768 768 768 767 766 765 764 762 761 760 760 759 759 759 758 757 756 755 754 752 749 747 745 742 739 736 733 730 727 723 720 716 711 706 700 693 685 677 668 657 647
728 729 731 733 735 738 740 743 746 748 749 750 751 751 750 751 751 751 751 752 754 757 761 762 762 762 764 766 768 769 769 769 770 770 771 771 772 771 771 770 769 768 767 767 767 767 766 765 764 763 761 760 759 759 758 758 758 758 757 756 755 754 752 750 748 746 744 742 739 736 732 729 726 721 717 713 707 702 696 688 680 671 660 649 641
727 729 731 733 735 737 739 741 743 744 745 747 748 747 747 748 748 748 749 750 752 755 759 760 760 761 762 764 766 767 767 767 768 769 770 770 770 769 769 768 767 766 766 766 766 765 765 763 762 760 759 758 758 757 757 757 757 757 756 755 754 752 750 749 747 745 743 741 738 735 731 728 725 720 716 711 706 700 694 687 678 668 658 648 641
728 730 732 734 735 737 738 739 741 742 743 744 744 744 744 745 746 747 748 748 750 754 757 758 759 760 762 763 764 765 765 766 767 768 768 769 768 767 767 766 765 765 765 765 765 764 763 761 760 758 757 757 757 757 757 756 756 756 755 754 753 751 749 747 746 744 742 740 737 734 730 727 723 720 715 710 705 699 693 685 675 665 657 650 644
729 731 733 734 735 736 738 739 741 742 743 744 743 742 743 743 745 746 746 748 750 753 755 756 756 758 759 760 762 763 763 764 766 766 767 767 766 765 765 765 765 765 765 764 764 762 761 760 758 757 757 756 756 756 756 756 755 755 754 753 752 750 748 746 745 743 741 739 736 733 730 726 722 718 714 709 704 699 693 685 676 666 659 654 649
729 730 732 733 735 736 737 738 739 741 742 743 743 742 742 743 745 746 746 747 749 752 753 754 755 756 757 759 760 761 762 763 764 765 765 765 764 764 764 764 764 764 764 763 762 760 759 758 757 756 756 756 756 755 755 755 754 754 753 752 751 749 748 746 744 743 741 739 736 732 729 725 721 717 713 708 704 699 694 688 680 672 664 658 653
729 730 731 732 735 737 738 737 737 738 740 741 741 741 741 743 744 745 745 746 748 750 751 753 754 755 756 758 759 760 761 762 762 763 763 763 763 764 764 764 763 763 762 761 759 758 757 757 756 756 756 755 755 755 754 754 753 753 752 751 750 749 747 745 744 742 740 738 735 732 728 724 720 716 712 708 704 700 695 689 684 677 670 663 656
729 732 734 735 736 737 737 735 735 736 738 739 740 741 742 743 744 744 745 746 747 748 750 751 753 754 755 757 758 759 759 760 760 761 761 762 763 763 763 763 762 760 759 758 757 756 756 756 756 755 755 755 755 754 754 753 753 752 751 750 748 747 746 744 743 741 738 736 734 731 727 724 720 717 713 708 703 699 696 692 687 681 675 668 661
726 729 732 734 734 733 733 734 735 736 738 738 739 740 741 742 743 744 745 745 746 747 749 751 752 753 755 756 757 757 757 758 758 760 761 761 762 762 762 761 760 758 757 756 755 755 755 756 756 755 755 755 754 754 754 753 752 751 750 749 748 747 745 744 742 740 738 736 733 731 728 724 720 716 713 710 705 700 696 693 689 684 678 672 665
721 723 726 729 731 731 732 734 735 736 737 737 738 739 740 741 743 743 744 745 746 747 749 750 751 752 753 754 755 756 757 757 758 759 760 761 761 761 760 759 758 756 755 755 754 755 755 756 756 756 755 755 754 754 753 752 751 750 749 748 748 746 745 744 742 740 737 735 733 730 727 725 721 717 714 711 707 702 697 694 689 685 680 675 669
719 721 724 727 729 730 731 732 734 735 736 736 737 738 739 741 742 743 744 745 746 747 748 748 750 751 752 753 754 755 756 757 758 759 759 759 759 759 758 758 756 755 754 754 754 754 755 756 757 757 756 756 754 754 753 752 751 751 749 748 747 746 745 744 742 740 737 735 732 730 727 725 721 718 715 712 708 704 699 695 691 687 682 677 671
718 720 723 725 727 729 730 731 732 733 734 735 736 737 738 739 740 742 744 745 746 746 747 748 749 750 751 753 754 755 756 757 758 758 758 758 757 757 757 756 755 754 754 753 754 754 755 756 757 757 757 756 755 754 753 752 751 750 749 748 747 746 745 744 742 740 737 735 732 730 728 725 722 718 715 712 709 706 702 697 693 689 684 679 674
717 719 722 724 726 727 728 729 730 731 732 734 735 736 737 738 738 740 742 743 744 745 747 749 750 750 751 752 753 754 755 756 756 756 755 755 756 756 756 755 754 753 753 753 754 754 755 756 756 757 757 756 755 754 753 752 751 750 749 748 747 746 745 743 741 739 737 734 732 730 728 726 723 719 716 712 709 706 703 699 695 691 687 682 678
716 719 721 722 724 725 726 727 729 730 731 732 733 734 735 736 737 738 739 740 742 744 746 748 749 750 750 752 752 753 754 754 754 754 753 754 755 755 755 754 754 753 753 754 754 754 755 755 756 756 757 756 755 754 753 752 751 749 748 747 746 745 744 742 741 739 737 734 732 730 728 726 724 721 717 713 710 707 704 701 698 694 690 686 682
716 718 720 721 723 724 725 726 727 728 729 730 731 733 734 735 736 737 738 740 742 744 745 746 747 748 750 750 751 752 752 752 752 752 753 753 754 754 755 754 753 753 753 754 754 755 755 755 756 756 756 756 755 754 753 752 751 749 748 747 746 745 743 742 740 739 737 735 733 731 729 727 724 721 718 715 711 708 705 702 700 696 692 689 685
717 718 719 720 722 723 724 725 726 727 729 730 731 732 733 734 736 737 739 741 742 743 744 744 745 747 748 749 750 751 751 751 752 752 752 753 754 754 754 753 753 753 753 754 754 755 755 755 755 756 756 756 755 755 753 752 751 749 748 747 746 745 744 742 741 739 737 735 733 731 729 727 725 722 720 717 713 708 705 702 700 697 694 690 687
717 718 719 720 722 723 724 725 726 727 728 729 730 731 732 734 735 736 737 739 740 741 743 743 744 745 746 748 749 750 750 751 751 751 752 753 753 753 753 753 752 752 753 753 754 755 755 755 755 755 756 756 755 754 753 752 751 749 748 747 746 745 744 742 741 739 738 736 734 732 730 728 726 723 721 719 715 711 708 704 701 699 695 692 689
717 718 720 721 722 723 724 725 726 727 728 728 730 731 732 733 734 735 736 738 739 740 741 742 744 745 746 748 749 749 750 750 750 751 752 753 753 753 753 752 752 752 752 753 754 755 756 756 756 755 755 755 755 754 753 752 750 749 748 747 746 745 744 742 741 739 738 736 734 733 731 729 726 724 722 720 717 714 711 707 704 701 698 695 692
717 719 720 721 722 723 724 724 725 726 727 728 729 730 731 732 734 735 736 737 738 738 739 741 743 744 746 748 748 749 749 749 749 750 751 752 752 752 752 752 752 752 752 753 754 755 756 756 756 755 755 755 755 754 753 752 750 749 748 747 746 745 744 742 741 739 738 737 735 733 731 729 727 725 723 721 719 716 713 710 706 703 700 697 694
717 719 720 721 722 723 723 725 726 726 726 728 728 730 731 732 733 735 735 736 737 738 739 741 742 744 746 747 748 748 748 748 749 750 750 751 751 751 751 751 752 752 752 753 754 755 756 756 756 755 755 755 755 754 753 752 751 749 748 747 746 745 744 743 741 740 739 737 736 734 732 730 728 726 724 722 720 717 715 711 708 704 701 698 696
717 719 720 721 722 722 723 724 725 726 727 728 729 730 731 732 732 733 735 736 737 738 739 741 742 744 745 746 746 747 748 748 748 749 749 750 750 750 751 751 751 751 752 753 754 755 755 755 756 755 755 755 755 754 753 752 750 749 748 747 746 746 744 743 742 740 739 738 736 735 733 731 729 727 725 723 721 718 716 713 710 707 703 700 698
716 718 719 720 721 722 723 724 725 726 727 728 729 729 730 731 732 733 734 735 737 738 739 741 742 743 744 745 745 746 747 748 748 748 748 749 749 750 750 751 751 751 752 752 753 754 755 755 755 755 755 755 755 754 753 752 750 749 748 747 746 746 745 743 742 741 740 738 737 735 734 732 730 728 726 724 722 720 717 714 712 709 706 703 700
717 718 719 720 721 722 723 724 725 726 727 728 729 730 730 731 732 733 733 734 736 737 738 740 741 742 743 744 745 746 747 747 747 747 747 748 749 749 750 750 751 751 751 752 753 754 755 755 755 755 755 755 754 753 752 751 750 749 748 747 746 746 745 744 743 742 740 739 738 736 734 733 731 729 727 725 722 721 718 716 714 712 709 706 703
717 719 720 720 721 722 723 724 725 726 727 728 729 730 730 731 731 732 733 734 735 736 738 739 740 741 742 743 744 745 746 746 746 746 747 747 748 748 749 750 750 751 751 752 753 754 754 755 755 755 755 755 754 753 752 751 750 749 748 747 746 746 745 744 743 742 741 740 739 737 735 734 732 730 728 726 724 722 720 718 716 714 711 709 707
718 719 720 721 722 723 724 725 726 727 727 728 729 730 730 731 731 732 733 734 735 736 737 738 739 740 742 743 744 744 744 745 745 745 746 746 747 747 748 749 750 750 751 752 753 753 754 754 754 754 754 754 754 753 752 751 750 749 748 747 746 746 745 744 744 742 742 741 739 738 737 735 733 732 730 727 725 724 722 720 718 716 714 712 710
719 720 721 722 722 723 724 725 726 727 728 729 729 730 731 732 733 733 734 735 736 736 737 738 739 740 740 741 742 743 743 743 744 744 745 745 746 747 748 748 749 750 750 751 752 753 753 753 753 754 754 754 753 753 752 751 749 749 748 747 747 746 745 745 744 743 742 741 740 739 738 736 734 733 731 729 727 725 723 721 720 717 716 714 712
720 721 722 722 723 724 725 726 726 727 728 729 729 730 731 732 733 733 734 734 735 736 736 737 738 738 739 740 740 741 741 742 743 743 744 744 745 746 747 747 748 749 749 750 751 752 752 752 753 753 753 753 753 752 752 751 750 749 748 747 747 746 745 745 744 744 743 742 741 740 739 737 736 734 732 730 729 727 725 723 721 719 717 715 713
721 722 722 723 723 724 725 726 727 727 728 728 729 730 731 731 732 732 732 733 733 734 734 735 736 736 737 738 738 739 740 740 741 742 742 743 744 745 745 746 747 748 748 749 750 751 751 752 752 752 752 752 752 752 751 751 750 749 748 747 747 746 745 745 744 744 743 743 742 741 740 738 737 735 734 732 730 729 727 725 723 721 720 718 716
721 721 722 722 723 724 725 726 727 727 728 728 729 729 730 730 730 730 731 731 731 732 732 733 733 734 735 735 736 737 738 738 739 740 741 741 743 744 744 745 746 747 747 748 749 749 750 751 751 751 751 751 751 751 751 750 750 749 748 747 747 746 745 745 744 744 744 743 742 742 741 740 738 737 735 733 732 730 729 727 725 724 722 720 719
720 721 722 722 723 724 724 725 726 726 727 728 728 728 729 729 728 728 729 729 729 729 730 730 731 731 732 733 734 735 736 737 738 739 739 740 741 742 743 744 745 745 746 747 747 748 749 749 750 750 750 750 750 751 750 750 750 749 748 748 746 745 745 745 744 744 744 743 743 742 741 740 739 738 736 735 734 732 730 729 728 726 724 723 722
Wind_Speed
38 38 37 36 37 37 35 32 31 30 27 23 21 19 19 20 19 17 15 16 17 17 17 16 15 14 13 12 11 10 11 11 11 11 12 12 13 13 14 15 16 16 16 16 15 16 17 18 19 19 19 20 20 19 18 17 16 16 15 15 15 14 15 14 10 11 21 23 22 25 27 27 28 30 31 33 34 34 34 35 36 36 36 37 37
39 37 36 36 38 39 37 34 32 29 26 23 21 20 20 21 20 18 17 17 17 18 18 17 16 15 14 14 13 13 13 13 13 13 14 15 15 15 15 16 18 18 18 17 16 16 17 19 20 19 19 21 22 21 21 19 18 18 19 19 20 19 18 19 16 12 17 24 25 26 28 28 28 30 31 32 34 35 34 35 36 36 35 36 37
38 37 36 38 41 41 36 33 31 29 26 24 22 21 21 21 20 19 18 18 18 19 19 17 16 16 15 15 14 15 16 16 16 16 17 18 19 18 18 18 18 19 19 18 17 16 16 19 20 20 20 21 23 23 22 22 21 21 22 22 23 24 22 22 22 18 16 22 25 25 27 29 30 30 31 32 33 33 33 34 35 36 36 35 36
36 35 36 40 41 36 28 24 26 27 27 25 23 22 21 21 21 20 19 18 19 20 19 18 17 17 17 17 17 17 18 17 17 17 17 18 18 17 17 16 17 18 19 18 17 16 17 19 20 20 20 21 23 24 23 24 24 24 25 25 26 28 28 27 26 24 19 19 23 26 27 29 31 33 32 32 33 33 32 33 34 35 36 36 36
35 36 38 39 34 27 25 24 27 29 28 26 24 23 22 22 22 20 19 19 20 21 20 19 19 19 19 19 19 18 16 15 15 14 14 13 13 14 14 15 16 16 17 18 17 17 17 19 20 20 20 21 22 23 23 24 25 26 27 29 29 30 30 28 27 26 23 20 23 28 28 27 30 33 33 32 33 33 32 32 33 33 34 36 37
35 36 35 29 25 26 29 32 31 31 30 28 25 24 23 23 22 20 20 21 21 20 19 19 20 20 20 19 18 16 15 14 13 12 11 11 12 13 14 15 15 16 16 17 17 17 18 19 20 19 19 21 21 21 22 22 24 26 27 29 31 30 29 29 29 27 25 23 24 26 28 27 28 31 33 31 30 32 33 33 33 31 32 36 38
30 28 24 21 25 29 31 31 29 28 28 27 24 24 24 23 21 19 21 23 22 19 18 19 20 20 19 18 17 17 16 15 14 13 12 12 13 14 14 15 15 16 16 16 17 18 19 19 19 19 19 20 20 20 20 21 22 24 26 27 29 29 28 29 29 26 24 24 23 24 26 27 27 30 33 31 28 29 31 31 31 30 32 35 37
23 24 24 25 31 34 31 27 24 24 25 25 25 25 25 22 20 21 24 24 22 19 18 19 20 19 19 18 18 18 17 15 14 14 14 14 15 16 15 14 15 16 16 17 18 19 20 20 19 19 19 19 19 19 19 20 21 22 23 24 25 27 27 26 26 25 23 23 22 23 23 25 26 29 31 29 25 24 26 27 31 34 34 35 37
25 29 31 31 37 39 32 26 25 25 26 27 28 28 26 23 22 26 29 26 23 21 20 20 20 20 19 18 18 18 17 16 16 16 16 16 17 17 15 15 16 17 17 17 18 19 20 20 21 21 21 20 20 20 19 19 20 21 22 22 23 25 25 24 24 23 22 21 21 22 21 21 24 26 27 26 25 25 26 27 31 35 35 35 38
32 34 36 35 38 37 31 26 27 28 29 31 31 28 26 26 27 30 31 28 25 24 23 22 22 20 18 16 16 16 17 17 17 17 17 18 18 18 18 17 16 17 17 17 18 18 19 20 21 22 22 23 22 21 20 20 20 20 21 21 21 22 23 23 23 23 21 20 21 21 17 17 23 25 26 29 29 28 29 28 29 33 33 30 33
35 35 35 35 34 32 30 30 31 30 31 32 32 28 27 32 33 32 32 31 28 26 25 25 24 20 16 14 14 15 16 17 17 18 18 18 18 19 19 19 17 17 18 18 18 19 19 20 21 21 23 24 24 24 22 22 22 21 20 20 19 19 21 22 23 23 21 20 20 20 18 19 24 26 27 30 30 28 29 29 28 29 28 22 21
33 32 33 35 35 34 35 37 37 36 35 35 36 34 31 32 33 34 35 33 30 28 28 27 25 20 17 16 17 17 18 18 17 18 18 18 19 20 20 19 18 18 18 19 21 21 21 20 21 22 23 25 26 26 25 24 23 22 21 20 18 18 19 20 22 23 23 21 20 21 22 23 24 26 27 29 30 30 30 30 28 28 28 24 21
34 35 38 42 42 40 41 40 39 39 38 39 40 37 32 30 32 35 35 34 32 30 30 29 25 20 19 19 19 20 20 19 18 18 19 19 19 20 19 19 18 19 20 21 23 24 24 22 21 22 23 25 27 27 25 25 24 22 21 20 19 19 19 20 21 22 23 23 23 25 27 27 25 27 30 30 30 31 29 30 31 30 29 29 30
38 39 40 42 43 43 43 42 40 40 40 41 41 36 31 31 32 33 34 34 33 31 31 30 25 22 21 20 20 21 21 20 20 19 19 20 20 20 19 18 18 19 21 22 24 25 24 22 21 21 22 25 27 25 23 23 22 21 21 21 21 20 20 22 23 22 21 22 24 28 30 29 29 30 32 31 31 32 31 31 34 34 34 37 40
35 35 35 37 41 43 43 43 43 42 39 34 31 29 29 31 33 34 33 34 34 33 32 30 26 24 21 20 20 21 21 20 20 21 22 21 20 18 17 16 17 20 22 23 24 24 22 20 19 20 22 25 24 21 20 21 21 21 22 23 22 21 22 24 24 22 22 22 23 27 29 30 30 30 30 31 33 35 36 37 39 41 41 41 41
33 34 36 37 40 42 42 41 39 35 29 26 26 28 30 32 34 34 33 33 34 32 30 29 27 23 20 20 21 21 21 20 21 22 22 19 16 14 14 15 18 20 22 24 24 22 20 18 18 19 22 23 20 18 19 20 20 21 23 23 22 22 24 26 24 23 24 25 25 27 28 28 28 27 29 31 33 39 41 39 40 42 38 32 30
34 36 37 38 39 39 39 37 32 26 25 29 32 33 32 33 35 34 32 33 32 31 30 29 25 22 21 21 21 20 20 21 21 20 17 14 12 12 14 16 18 19 20 21 21 20 19 18 17 18 19 20 19 18 18 19 20 21 22 21 21 23 26 26 25 26 27 28 28 28 27 26 25 26 28 30 34 40 39 34 35 38 32 21 18
33 35 36 38 40 40 36 32 30 27 28 33 34 33 33 33 34 33 32 33 33 31 30 27 24 22 22 20 19 18 19 18 16 14 11 11 13 15 16 16 16 17 18 19 19 19 19 17 16 16 18 19 19 18 17 18 19 19 18 18 20 23 25 25 27 30 30 30 30 29 26 24 24 25 28 30 35 39 37 34 36 38 32 23 19
33 36 38 39 40 38 32 29 30 33 36 36 35 34 33 33 32 32 32 32 31 29 28 25 23 20 17 15 14 15 15 13 11 10 10 12 14 15 14 14 15 17 19 19 19 18 17 16 16 17 17 17 17 16 15 15 15 15 16 16 18 20 22 24 27 30 31 31 31 30 29 27 25 26 28 30 35 38 37 37 39 38 35 32 28
35 36 35 35 35 31 28 31 36 39 39 36 31 30 28 27 25 24 25 27 27 26 24 22 20 17 14 12 12 12 12 11 10 11 12 12 13 12 12 14 16 17 18 17 17 18 17 17 17 17 15 15 16 15 13 12 13 14 14 13 14 17 21 24 26 27 27 27 27 27 29 28 27 27 29 31 35 39 39 40 42 42 40 38 35
31 30 28 29 29 28 28 34 40 39 33 26 23 23 23 20 16 15 17 19 21 21 19 17 18 16 13 11 11 12 13 13 11 11 11 10 11 12 13 15 16 16 16 16 17 18 19 19 18 16 14 14 14 12 12 13 13 11 10 10 12 16 19 23 25 24 23 23 23 24 26 27 28 28 29 32 36 40 42 44 45 46 44 42 37
23 24 24 25 27 27 28 32 34 28 21 18 20 23 22 19 18 18 19 19 18 15 12 13 15 13 10 9 12 14 14 13 11 10 10 10 11 12 14 15 15 15 15 16 17 18 19 18 17 14 13 13 13 13 13 12 9 7 8 10 12 15 18 20 20 20 20 20 21 23 24 26 27 29 30 32 36 40 44 46 48 49 49 46 36
20 22 23 24 26 25 24 25 24 19 16 17 21 22 20 19 21 24 25 23 17 13 13 14 14 13 12 12 14 14 13 12 10 10 10 11 12 13 13 13 14 14 15 16 18 17 17 16 15 14 14 14 13 12 9 6 4 5 7 10 12 14 16 16 16 17 18 18 19 21 23 25 26 29 31 33 37 41 43 46 50 51 52 46 30
19 20 21 21 21 21 20 21 20 18 16 17 20 21 20 20 21 22 23 22 18 15 15 14 14 15 16 16 16 15 14 12 11 11 11 11 12 12 12 12 13 13 14 16 16 15 14 14 13 12 11 8 6 4 2 2 2 5 8 10 11 12 13 13 15 17 17 18 19 21 23 25 26 29 31 33 36 40 41 44 50 51 50 44 28
16 16 16 15 15 16 17 16 15 16 19 22 24 23 21 21 21 19 20 21 19 18 16 13 14 16 19 19 18 16 14 12 12 12 11 11 10 10 10 10 12 13 14 14 13 12 11 10 7 4 3 2 1 1 1 1 3 5 7 9 10 11 12 13 15 16 17 18 20 21 24 27 28 29 31 32 34 37 39 43 49 51 50 45 33
12 11 10 11 12 13 12 11 15 21 24 24 23 21 21 21 21 20 20 20 17 16 14 14 14 16 19 18 17 16 14 14 14 12 11 9 9 8 9 10 11 13 13 12 10 9 6 2 1 1 1 1 1 1 1 2 3 5 6 8 9 10 12 13 14 16 17 18 20 22 25 27 28 29 30 31 33 35 37 39 44 48 49 42 32
13 12 12 13 12 12 11 12 16 19 19 19 18 19 19 21 22 22 22 20 18 15 15 15 16 17 17 16 16 15 15 15 14 12 10 9 8 9 10 11 12 12 11 9 7 5 5 5 3 2 1 0 1 2 2 2 3 4 5 7 9 11 12 12 13 14 16 17 20 22 24 26 28 29 30 30 31 32 35 36 37 42 46 40 29
11 11 11 9 6 8 11 11 13 15 17 17 16 15 16 19 22 23 22 21 20 16 14 16 17 18 17 16 15 15 15 15 14 11 9 10 10 11 12 12 11 10 8 6 4 5 6 5 3 1 1 1 1 1 0 1 3 5 6 8 10 11 12 13 14 15 16 18 19 22 24 27 28 29 30 30 30 30 33 35 34 36 41 38 26
9 8 6 6 5 7 12 12 13 16 17 16 14 14 14 17 19 19 19 19 18 14 13 15 17 15 14 14 15 15 15 14 12 10 10 11 12 12 12 10 8 6 4 2 3 3 3 2 2 1 1 1 1 3 4 5 6 7 9 10 12 13 13 14 15 17 18 19 20 22 24 26 27 28 28 29 31 31 32 32 32 32 34 33 26
14 10 7 9 13 15 15 14 14 16 16 16 16 15 14 14 14 15 15 15 13 12 12 13 12 12 12 12 12 12 11 11 10 11 11 12 11 10 9 7 4 2 1 0 1 0 1 1 1 1 1 3 5 7 8 9 10 11 11 12 13 14 14 14 15 16 17 19 20 21 23 24 26 28 27 27 30 32 31 30 30 29 29 29 26
13 12 13 17 19 18 16 15 16 17 17 17 17 16 14 12 11 11 11 11 11 12 12 11 10 10 10 10 10 10 9 8 9 9 10 10 9 8 7 4 1 1 2 2 2 2 2 1 0 2 2 4 6 8 8 9 11 12 13 13 13 13 14 14 15 16 17 18 20 21 22 24 25 27 27 25 27 29 30 30 30 28 28 27 25
13 14 19 21 19 17 17 17 18 18 18 18 17 16 15 13 11 10 10 11 11 11 11 10 10 9 9 8 9 9 8 8 8 8 8 8 7 6 5 2 1 3 4 3 2 2 2 2 3 3 3 5 6 7 7 8 9 10 12 13 13 13 14 13 14 15 16 18 19 20 22 24 25 26 26 25 25 26 28 29 29 27 26 26 26
16 18 21 21 19 17 18 19 20 21 21 21 19 19 18 17 16 14 12 11 10 9 9 9 9 9 9 9 8 8 8 9 7 6 6 6 5 4 4 3 2 4 5 3 0 3 4 4 4 3 4 5 5 5 6 7 8 9 11 12 13 13 13 12 12 13 14 16 18 19 21 22 24 26 27 26 24 24 25 26 27 26 25 24 25
18 19 20 21 21 20 21 23 24 24 24 23 22 21 21 21 21 19 16 14 12 11 11 11 11 11 10 10 9 9 9 8 5 3 2 2 2 3 4 3 2 3 3 1 3 5 5 4 3 3 3 4 4 4 6 7 8 9 11 12 12 12 11 11 12 14 15 16 18 19 20 22 23 24 26 27 25 24 23 25 26 25 24 24 23
18 18 19 20 21 22 24 25 25 25 24 24 24 24 23 22 21 21 20 19 18 18 17 15 13 12 11 11 10 9 8 6 4 2 1 2 1 1 3 3 1 1 1 2 4 4 3 3 3 3 3 3 3 5 6 8 9 11 12 13 13 11 11 12 13 14 15 17 19 20 20 21 22 23 24 24 25 24 23 23 24 23 22 22 22
16 16 16 17 18 20 22 24 24 25 25 25 25 25 24 22 21 21 21 20 19 19 18 16 15 13 12 11 10 8 7 5 3 2 1 2 2 0 3 3 3 3 3 4 3 3 3 3 3 2 2 2 4 6 8 9 10 10 11 12 12 11 11 12 13 14 15 17 18 20 21 21 22 23 23 23 24 25 23 22 23 23 23 22 21
16 16 15 14 14 16 18 21 22 22 23 24 23 23 22 21 20 20 19 16 15 15 16 16 16 15 13 11 10 8 6 5 3 2 0 0 1 1 3 4 4 5 5 5 3 3 3 4 3 1 1 2 4 7 9 10 9 9 10 10 9 9 10 11 12 14 15 17 18 20 21 22 22 22 23 23 24 26 26 25 24 23 24 24 23
15 13 11 10 11 13 15 16 17 17 19 20 21 21 20 19 18 17 15 14 14 15 17 17 16 15 14 12 10 8 7 5 5 4 4 3 3 2 2 4 5 6 6 6 5 4 3 3 2 1 2 3 5 8 9 9 8 8 9 8 8 8 9 10 12 14 15 17 19 20 21 22 22 22 22 22 22 24 25 25 25 24 24 25 23
10 8 7 7 8 10 11 12 12 13 15 16 18 19 19 18 16 14 14 14 15 17 18 17 16 15 13 11 9 8 7 6 6 7 7 7 6 4 3 4 5 6 7 8 6 4 3 3 2 1 2 3 6 8 9 8 8 8 7 7 7 8 9 10 12 14 16 17 18 20 21 21 22 22 22 22 22 23 23 24 24 23 22 22 22
8 7 6 6 6 7 8 9 10 11 12 13 15 16 16 14 12 12 13 15 16 17 18 18 17 15 13 10 8 7 7 7 8 9 10 9 8 6 5 5 6 6 6 7 7 5 4 3 2 1 2 4 7 9 9 8 8 7 6 6 7 9 10 11 12 14 15 17 18 19 20 21 21 22 22 22 22 22 22 22 23 23 22 22 22
7 6 6 6 6 7 7 7 8 8 8 9 10 11 12 11 10 11 14 16 15 15 17 17 16 15 14 10 7 6 6 7 8 10 11 11 9 7 6 6 7 6 6 6 6 6 5 4 2 0 2 4 6 9 9 8 7 6 5 5 7 8 9 11 12 13 14 15 17 18 20 20 21 21 22 22 23 23 23 22 23 23 23 23 23
6 6 6 6 6 6 6 6 6 6 6 7 8 9 10 9 9 10 13 13 12 12 14 16 15 15 13 10 8 7 8 8 8 10 11 10 8 6 6 7 7 6 5 4 5 7 6 4 3 1 2 4 6 9 9 7 7 6 5 4 6 8 9 10 11 12 13 14 15 17 18 19 20 20 20 21 22 23 23 23 23 24 24 24 24
5 5 5 6 6 6 5 5 5 4 5 6 7 7 8 8 8 9 10 11 11 12 13 15 16 16 14 12 11 10 9 9 9 10 10 10 8 6 5 6 6 6 5 4 4 6 6 4 3 2 2 4 6 8 9 7 6 6 5 4 5 7 9 10 10 11 12 13 15 16 17 18 19 19 20 21 21 22 23 24 23 23 24 24 24
5 5 5 6 6 5 4 4 5 5 6 5 5 6 7 6 7 8 10 12 13 14 14 15 17 17 16 15 13 12 10 10 10 10 10 10 8 7 6 6 6 6 6 5 5 6 6 5 3 2 2 4 6 8 8 7 6 6 5 4 5 6 8 10 10 11 12 13 14 15 16 16 18 18 19 19 20 21 23 23 23 23 24 24 23
5 6 6 6 5 4 4 4 5 5 5 4 4 6 7 7 7 9 11 12 13 14 15 16 18 18 18 16 14 13 12 12 11 11 10 10 10 9 7 7 7 7 6 6 6 6 6 4 3 2 2 3 5 7 8 7 6 6 5 4 4 5 7 9 10 11 12 12 13 14 14 15 16 17 17 18 18 19 21 22 22 22 23 23 22
7 7 6 5 4 4 4 4 5 5 4 4 5 6 8 8 9 11 13 14 14 15 16 17 18 19 19 16 13 13 13 13 12 11 11 11 10 10 8 8 9 10 8 7 7 7 6 4 3 2 2 2 4 7 9 9 7 6 6 5 4 4 6 8 9 10 11 12 12 13 13 14 14 15 15 15 16 17 20 21 21 22 22 22 22
7 7 5 4 4 4 4 5 5 4 4 4 6 7 9 10 11 12 14 15 15 16 17 17 18 18 18 17 15 13 13 13 13 12 11 10 10 10 9 8 10 12 11 9 8 8 6 4 3 1 1 1 3 6 9 10 8 6 6 6 4 3 4 6 7 8 10 11 12 11 11 12 13 13 13 14 14 16 18 19 20 21 21 22 23
8 7 6 5 5 5 5 5 6 6 6 7 7 7 8 10 11 13 14 15 16 16 17 17 18 19 19 18 16 15 14 14 13 13 12 10 9 11 12 11 11 14 15 12 10 9 7 5 3 2 1 1 2 5 8 10 9 7 7 6 5 3 3 4 6 6 8 10 10 9 10 11 11 11 12 13 14 15 17 18 19 20 21 22 23
9 8 7 6 5 5 6 7 8 9 9 9 9 9 10 11 12 13 14 14 15 16 17 17 18 18 19 19 18 17 16 15 15 15 14 12 10 12 14 13 12 15 17 15 12 10 7 5 3 2 2 1 1 4 7 9 9 9 8 7 6 4 3 3 4 5 7 8 8 7 8 10 10 10 11 12 12 14 16 16 17 19 21 22 23
8 7 6 6 7 8 9 9 10 11 12 12 12 12 13 13 14 15 15 15 16 17 17 18 18 19 20 20 20 19 18 18 17 16 15 14 13 13 14 13 14 16 17 15 13 10 8 5 4 3 3 3 2 2 5 7 9 10 10 10 7 5 4 3 3 4 5 7 7 5 6 8 9 9 10 11 12 13 15 16 17 19 21 21 22
8 7 7 6 4 4 4 5 7 9 11 13 15 16 17 18 18 18 18 18 18 19 19 20 21 21 20 20 21 20 20 19 18 17 16 17 17 16 15 15 15 17 17 16 13 11 9 6 4 4 4 4 3 2 3 5 7 8 10 11 10 6 4 4 3 2 3 5 5 4 5 7 9 9 10 11 12 13 14 15 17 19 20 20 21
Wind_Direction
208 207 204 201 201 204 208 210 210 210 210 209 209 208 210 213 215 213 208 210 214 219 222 222 227 234 236 238 241 245 251 254 255 253 252 255 261 267 271 272 272 275 279 279 277 273 271 270 269 270 271 269 267 267 267 268 268 264 265 266 263 264 265 258 249 273 290 295 299 305 310 312 312 317 320 321 324 327 327 328 328 325 321 319 317
207 205 201 198 200 205 207 207 208 209 209 209 211 211 212 214 213 211 210 214 220 225 226 226 233 240 241 244 250 256 261 265 267 267 266 266 266 266 268 270 273 276 278 279 281 278 275 272 271 272 272 269 267 267 267 267 267 266 265 265 265 266 263 261 258 263 282 291 295 301 307 308 307 312 317 317 318 321 321 323 325 322 319 317 315
206 203 199 197 200 204 205 203 203 206 208 210 212 214 214 215 215 215 216 220 224 226 227 230 238 244 247 251 257 262 268 271 272 272 271 270 268 267 270 273 275 277 278 280 285 285 281 276 275 276 274 270 268 267 267 267 266 266 267 266 265 267 266 263 261 258 268 284 291 296 303 305 303 307 312 313 313 314 314 316 318 318 317 316 313
205 202 199 199 200 197 193 197 203 206 210 213 215 216 217 219 220 220 221 225 227 227 229 234 239 245 249 252 258 264 268 270 271 272 272 271 270 269 271 274 276 277 278 280 284 286 284 280 278 278 275 271 269 269 268 267 267 266 266 266 265 267 269 265 260 260 263 276 286 289 295 299 299 303 307 308 308 309 308 309 312 313 314 314 312
204 201 200 198 191 177 176 195 208 210 212 216 217 218 221 223 224 223 225 230 231 229 231 235 240 246 249 253 260 264 266 267 267 268 269 270 271 271 273 275 277 278 278 279 282 283 284 283 279 278 276 272 271 272 271 271 272 270 267 267 267 266 267 266 265 266 263 267 280 287 291 292 293 298 302 303 303 304 304 304 307 309 311 312 310
203 201 198 188 166 161 180 199 209 213 215 216 218 221 224 227 228 227 230 234 234 232 236 242 248 252 254 257 261 262 262 263 262 262 266 270 271 274 276 278 281 282 282 282 282 281 282 282 280 276 274 273 274 276 277 278 279 277 274 272 270 268 266 268 270 268 264 266 276 284 288 289 289 292 298 299 299 300 301 302 304 305 308 309 308
199 192 183 161 148 164 188 202 209 219 222 220 222 225 226 230 233 233 236 237 235 236 242 249 253 253 252 253 255 255 258 258 256 259 269 274 273 276 279 281 283 285 287 287 285 282 282 281 279 275 273 274 276 278 280 282 283 283 282 280 276 272 268 270 271 268 267 270 275 279 284 286 286 287 293 297 295 294 297 300 302 305 306 306 304
182 174 166 155 156 172 192 202 208 223 229 227 230 230 228 230 228 229 236 238 235 238 244 248 248 245 244 247 250 252 253 251 250 259 270 274 272 273 278 282 282 284 287 289 288 284 282 281 278 275 273 273 276 278 279 281 284 286 288 288 283 276 270 271 272 271 270 271 274 278 281 284 285 287 292 296 292 288 292 296 299 302 304 303 301
171 171 169 165 167 177 190 194 199 217 227 228 231 229 229 231 223 222 232 236 236 240 246 247 242 238 239 244 248 249 248 249 253 261 267 268 267 269 276 279 279 282 285 287 288 286 283 282 279 276 276 275 277 277 276 278 282 285 289 291 287 280 274 272 272 270 270 271 274 277 278 280 284 288 291 290 286 287 293 295 294 296 300 299 298
174 175 172 172 172 174 180 186 197 215 225 227 226 224 230 238 233 229 233 236 239 243 246 241 234 232 235 240 244 247 248 252 255 258 261 264 266 268 273 278 279 281 283 284 285 284 282 283 282 281 280 278 278 276 273 274 278 282 288 290 287 281 275 272 271 269 270 272 274 278 278 278 282 285 286 286 288 291 294 293 291 295 299 298 296
177 174 171 169 164 164 173 185 198 214 223 224 220 220 232 240 238 237 237 237 240 244 241 232 228 230 236 241 248 250 252 254 254 256 260 263 267 269 271 276 278 280 281 281 280 280 280 282 284 285 284 281 280 278 274 273 274 279 286 289 284 278 273 270 270 270 270 269 272 276 276 276 281 284 284 287 291 292 292 293 293 295 297 296 296
171 166 166 164 162 166 178 188 198 210 217 216 213 219 231 237 238 240 239 238 240 240 234 228 228 234 243 250 253 254 256 259 259 263 267 268 270 270 270 273 277 279 280 280 280 279 278 280 283 286 287 287 285 282 277 274 273 277 285 289 283 275 274 272 271 272 272 271 272 275 275 277 282 285 285 289 291 291 293 295 294 292 290 288 286
167 165 165 167 169 174 182 193 204 211 214 211 212 220 231 235 237 241 240 238 239 235 230 228 232 240 248 251 253 257 262 266 269 272 276 278 277 272 271 274 277 279 280 281 281 280 278 279 282 284 288 291 290 285 280 275 274 277 284 287 283 278 279 279 278 278 277 275 274 275 278 280 281 283 287 289 290 291 294 295 293 291 287 284 283
173 170 168 169 174 178 184 194 205 211 213 212 212 220 230 235 238 242 240 238 236 232 229 230 235 243 249 251 255 262 268 271 275 279 281 284 282 276 272 274 277 279 281 281 280 279 279 280 282 285 291 292 290 286 281 277 277 281 285 286 283 280 282 284 286 288 286 280 275 277 281 283 281 282 288 290 290 290 292 293 294 292 288 285 285
173 172 170 170 178 184 188 196 205 209 211 212 214 223 234 237 237 240 240 237 235 233 231 231 237 243 249 254 258 264 271 276 279 279 280 285 287 280 275 276 280 282 282 282 280 279 279 281 285 291 294 292 286 283 282 281 280 284 286 287 284 282 284 288 290 293 296 292 284 281 284 286 283 284 290 294 295 295 295 294 294 293 289 287 285
172 175 176 177 184 190 192 199 205 207 206 210 222 236 243 240 236 237 240 238 235 234 232 233 238 245 252 258 262 267 275 280 279 278 281 285 284 280 279 282 284 283 282 282 281 279 279 284 290 292 290 287 284 284 286 286 284 284 286 287 286 286 288 291 294 299 302 301 295 290 289 286 282 285 293 300 304 303 301 297 294 293 290 287 284
177 179 180 183 190 194 195 197 198 201 207 213 224 238 243 239 236 237 238 237 235 232 233 235 240 248 254 259 264 270 278 282 281 278 278 278 278 284 288 287 284 281 280 280 278 277 282 288 291 289 286 286 288 287 287 287 286 284 285 287 288 288 291 295 300 305 306 304 302 299 295 287 281 285 296 307 313 310 303 294 292 293 291 286 284
182 182 182 186 192 197 197 191 188 196 209 217 228 240 242 237 236 237 236 236 235 234 235 239 243 250 256 260 266 274 280 282 278 271 270 276 283 288 287 283 280 278 277 276 276 280 286 288 289 289 289 289 287 283 281 282 283 285 286 286 287 288 294 301 307 309 309 309 308 306 302 294 286 290 300 309 315 312 302 293 292 294 290 284 283
186 186 188 190 195 197 193 185 187 199 210 218 231 241 240 237 239 239 237 237 236 237 238 239 243 248 250 254 268 281 280 272 264 265 276 285 287 285 279 274 273 275 277 279 282 286 288 287 290 291 288 283 278 276 278 279 282 287 285 283 285 292 300 307 309 311 312 311 309 308 306 301 296 298 305 311 315 314 306 300 298 295 289 284 282
192 192 191 192 193 192 185 183 191 203 211 220 234 242 242 243 244 243 239 237 237 239 240 238 236 234 228 236 259 272 265 256 262 276 286 287 283 278 272 270 272 276 280 284 287 290 291 291 292 291 284 278 274 272 273 278 286 287 280 279 290 300 306 309 309 311 311 307 305 305 304 305 306 307 311 316 320 319 315 311 307 300 292 286 282
194 192 191 191 189 188 185 187 194 203 213 226 239 242 241 242 243 242 243 244 244 243 237 225 216 211 213 232 250 251 250 257 270 280 284 282 277 272 269 268 270 273 278 283 287 291 294 294 294 289 281 279 276 270 272 281 286 281 273 283 298 305 309 312 311 312 310 306 306 306 307 312 314 315 318 322 325 325 322 318 314 309 301 293 286
192 192 191 189 187 187 188 190 196 205 218 229 234 234 232 230 230 233 238 241 242 234 212 192 192 201 218 240 243 241 247 259 269 274 275 271 267 265 264 264 266 270 277 284 289 292 294 294 292 286 282 283 282 280 282 284 277 265 274 293 302 306 312 315 316 317 315 312 312 312 314 318 318 319 324 327 329 329 325 322 321 319 316 310 298
191 191 189 190 191 190 190 193 201 214 226 231 235 237 234 229 230 233 234 234 228 205 180 176 189 210 233 244 242 242 247 254 260 262 263 261 259 260 259 261 266 274 281 287 291 293 292 290 289 288 287 289 288 286 285 273 250 265 291 302 306 309 315 321 328 330 325 320 320 319 320 322 322 323 325 327 329 329 326 326 329 328 327 328 317
190 189 188 190 192 195 200 206 214 225 237 246 250 249 242 237 237 237 236 234 219 186 175 189 205 219 233 239 238 236 239 245 249 251 252 253 254 257 260 265 273 279 284 286 288 290 290 291 293 292 290 289 288 280 253 222 260 293 302 306 310 316 324 334 342 342 335 330 328 324 323 325 325 324 324 326 328 328 328 334 338 336 336 341 338
184 184 186 188 193 203 213 219 232 247 253 253 252 248 243 239 237 233 229 226 209 182 179 202 215 219 227 230 226 224 229 237 241 243 245 247 252 260 267 274 278 280 281 281 281 284 287 289 293 289 276 267 247 202 194 257 289 298 303 311 323 333 341 348 351 349 342 336 331 325 324 328 328 326 327 329 332 333 336 341 343 343 345 349 350
175 180 190 203 213 220 227 237 250 256 255 252 248 247 245 239 231 223 218 213 198 181 192 218 225 224 227 225 217 216 224 231 235 237 239 243 255 268 274 274 274 273 274 275 275 273 263 234 159 131 132 172 205 209 232 266 282 292 303 323 342 353 357 360 358 353 345 336 331 327 327 330 331 332 335 338 340 341 342 341 343 345 345 346 350
183 190 200 209 215 217 221 237 251 256 257 256 250 247 245 237 226 220 215 208 197 193 210 229 234 231 226 217 211 216 223 226 228 232 238 250 263 272 272 268 263 261 265 267 261 233 187 160 142 128 127 202 227 239 253 276 302 318 331 347 360 5 6 6 4 359 350 340 334 332 332 335 338 339 342 343 342 343 344 342 342 344 344 341 344
177 180 185 186 196 220 231 246 263 266 263 256 247 238 233 228 222 218 213 208 206 208 218 225 225 222 218 210 208 213 219 222 226 233 246 258 266 268 264 256 251 254 261 256 227 179 163 166 173 177 228 261 242 237 331 19 12 8 6 6 8 10 10 9 8 6 1 351 343 340 341 343 344 344 345 344 341 343 347 347 344 344 343 342 344
144 157 161 146 163 233 251 259 261 255 244 232 221 210 205 205 206 206 208 211 216 225 232 228 219 213 209 207 207 214 223 230 235 242 252 258 261 258 249 240 241 252 258 229 187 165 164 194 227 275 323 1 58 51 38 30 25 21 16 13 11 11 12 10 8 6 5 359 351 347 347 346 345 345 347 346 343 344 348 349 346 345 345 343 342
136 146 171 189 196 216 237 244 239 232 221 208 198 191 187 190 195 200 208 215 218 218 220 217 208 200 200 205 213 226 239 245 242 242 249 253 248 237 228 227 238 261 277 226 211 211 288 283 289 329 26 54 46 35 27 21 16 14 13 12 12 11 10 9 7 5 5 3 357 352 349 346 345 347 348 346 343 344 348 349 347 347 349 345 342
155 165 195 211 215 222 232 233 226 219 211 202 194 186 180 183 193 199 202 203 199 195 195 194 194 198 204 210 215 221 228 232 231 233 238 236 224 213 214 224 262 3 358 343 347 357 347 330 76 80 78 68 49 35 26 19 12 8 6 6 8 7 6 5 4 4 6 5 2 358 355 350 347 347 347 345 342 343 346 350 351 350 349 348 346
193 203 214 223 228 230 227 223 217 210 202 195 191 188 184 179 176 180 184 185 185 187 190 192 195 199 202 205 205 203 201 204 212 220 220 211 204 209 225 247 341 1 351 341 345 20 66 100 102 86 70 60 51 39 26 17 10 6 3 0 359 359 360 0 1 4 8 7 5 2 358 354 350 348 347 346 345 345 346 348 351 350 348 348 351
210 216 221 224 225 222 216 212 208 203 199 196 195 195 194 188 179 173 172 174 178 183 187 189 189 187 185 186 187 184 181 185 194 206 207 201 204 230 253 270 316 345 349 342 351 126 119 111 97 79 61 50 43 35 23 11 2 359 359 356 351 349 353 357 0 6 11 12 9 6 2 358 354 350 348 349 349 348 348 349 349 350 350 350 351
219 219 220 217 212 208 206 205 204 204 203 203 202 202 202 199 191 181 172 168 169 172 175 176 177 175 171 168 166 164 164 166 172 186 194 197 221 243 252 258 296 349 1 31 148 139 130 118 99 78 57 42 31 20 10 2 354 350 351 350 347 347 352 359 5 11 15 16 14 10 6 2 358 353 349 349 349 349 350 351 351 351 351 350 349
222 223 224 220 214 209 207 207 207 207 208 209 209 207 204 201 197 191 186 181 177 172 169 167 166 165 161 158 157 155 153 150 142 122 72 41 37 219 223 227 238 42 81 134 140 136 132 122 106 86 55 29 14 7 359 352 349 347 346 346 347 352 359 7 11 15 18 19 17 13 9 6 3 357 351 348 348 349 349 350 351 351 350 351 350
221 218 218 217 215 213 213 213 213 214 214 214 213 211 207 203 200 198 196 191 181 169 163 162 161 159 157 157 156 156 157 154 142 116 62 44 51 171 220 218 197 167 159 153 140 135 133 123 117 106 64 21 5 1 354 345 343 345 344 345 350 359 8 13 16 18 21 22 19 16 13 10 6 1 356 352 351 351 350 350 352 352 354 356 355
200 198 197 202 208 212 214 215 216 218 219 218 216 214 210 206 203 201 196 185 170 164 165 166 164 161 160 162 166 167 169 170 169 175 238 339 355 273 243 224 204 189 181 172 155 139 128 124 126 119 46 8 356 353 348 343 344 349 348 349 357 9 17 21 23 23 24 24 22 20 16 13 10 5 360 356 354 354 354 354 354 354 356 1 2
185 187 188 195 203 207 209 212 214 217 219 219 219 215 209 205 204 200 187 171 168 176 179 175 171 170 171 174 180 182 186 195 208 226 245 251 256 264 237 210 201 195 187 177 164 148 134 127 115 74 23 1 352 348 346 348 354 356 353 357 11 22 26 28 28 28 27 26 24 23 19 16 14 11 5 0 357 356 355 356 356 355 357 1 3
179 177 178 187 198 205 210 214 216 216 215 215 214 211 207 205 202 193 180 174 180 185 183 178 180 183 182 182 189 199 209 223 234 237 235 231 233 238 227 207 200 194 185 177 169 160 151 140 117 65 23 0 354 353 353 357 1 1 0 11 26 31 32 33 31 30 29 27 24 23 22 20 17 15 11 7 3 0 359 358 359 358 356 357 359
171 168 175 190 199 203 209 215 216 213 210 209 208 206 203 199 193 185 183 185 187 186 184 185 188 187 185 188 199 211 225 239 243 236 227 220 219 222 219 212 206 197 187 181 179 179 177 172 164 111 22 6 0 359 360 1 3 5 10 25 36 37 36 36 34 31 29 27 25 24 22 21 20 18 15 12 9 7 5 3 2 3 2 1 1
166 169 184 198 205 206 209 214 216 214 210 204 197 190 183 179 184 195 199 196 191 186 188 192 192 189 189 196 205 215 228 240 237 227 221 217 216 219 222 220 212 200 190 187 187 190 193 193 190 203 9 7 2 1 2 3 7 11 15 28 38 39 38 37 35 31 28 27 26 25 23 22 22 20 16 15 15 15 14 12 10 9 9 9 9
169 180 191 199 205 208 211 216 218 216 206 189 180 180 184 191 203 210 205 197 191 188 191 194 195 191 190 197 208 217 223 226 223 218 215 213 214 221 224 222 215 204 197 194 193 198 204 207 205 227 352 2 360 359 0 1 7 13 16 26 36 38 37 36 33 31 28 26 25 25 23 23 24 23 21 20 21 20 18 17 16 15 14 14 15
173 183 195 204 209 213 218 219 211 192 174 169 176 190 203 213 218 213 198 187 187 193 197 198 198 195 193 197 204 210 213 214 215 218 217 214 214 219 220 217 216 210 203 199 198 204 212 217 217 229 331 358 359 360 1 3 7 12 13 19 31 35 33 32 30 28 26 25 24 23 23 23 25 25 24 24 26 25 23 21 20 19 19 18 19
167 183 195 201 203 205 205 202 189 170 161 170 194 211 220 223 220 210 198 191 194 201 204 204 201 199 198 198 200 202 206 211 216 222 223 220 218 217 212 206 204 200 196 197 199 206 217 228 231 239 323 357 3 6 8 8 9 11 9 13 26 31 27 26 26 25 25 24 21 20 21 23 24 25 25 25 27 28 27 24 22 21 23 24 23
175 185 183 175 168 173 184 187 184 174 172 190 222 238 247 248 234 215 204 200 202 206 208 207 205 202 201 201 202 204 210 215 219 224 228 227 223 218 210 205 203 200 197 195 199 208 223 236 240 258 329 359 12 17 18 15 13 12 9 6 12 19 21 21 20 20 21 21 18 17 19 21 22 25 26 26 28 30 30 29 27 25 25 26 26
177 176 172 166 169 186 197 194 188 183 186 200 216 223 226 228 222 214 209 208 211 214 213 210 207 205 203 203 204 209 215 219 221 225 230 232 226 215 207 207 210 209 206 203 205 214 227 235 240 283 340 6 23 25 23 21 16 12 7 5 2 6 13 15 14 13 14 13 12 15 19 19 20 25 27 27 29 33 34 34 34 32 30 30 29
173 174 176 184 196 204 203 195 191 191 197 205 211 214 214 215 216 215 212 212 216 221 219 214 210 210 208 206 207 212 217 217 214 215 222 229 225 214 209 211 212 209 207 208 210 215 223 232 241 278 339 15 29 27 25 23 19 12 6 2 353 346 359 6 8 8 6 3 4 11 18 18 19 24 28 31 34 36 37 39 40 39 37 35 33
173 177 180 185 192 201 207 208 211 218 222 219 217 216 215 216 217 216 213 212 216 221 222 221 220 219 216 212 211 214 216 214 211 210 215 223 224 218 217 219 217 211 207 208 211 215 221 229 238 255 281 328 21 27 28 29 28 21 11 0 345 326 338 355 359 0 359 357 359 7 16 18 19 25 31 37 41 41 41 43 45 44 44 43 39
184 185 188 193 200 209 216 219 223 228 233 234 233 228 222 220 221 220 217 215 217 220 223 224 226 225 221 216 214 215 215 214 211 211 213 219 222 218 216 217 216 211 208 208 210 215 219 223 227 238 247 251 348 23 29 32 33 29 19 5 346 318 305 326 347 355 357 358 1 9 16 19 26 35 42 45 48 48 47 49 51 50 50 49 46
174 183 193 207 218 225 230 232 235 238 242 246 247 244 240 235 232 230 227 223 221 221 224 226 227 228 225 221 217 217 217 214 211 211 214 219 220 216 212 210 209 208 208 210 214 215 215 216 216 226 241 246 257 356 20 26 27 24 19 12 355 325 291 289 318 342 353 357 2 15 23 26 37 50 54 54 55 55 55 57 57 56 55 54 53
146 150 157 168 184 209 230 242 249 251 254 256 256 256 254 250 246 243 239 234 229 227 228 228 228 227 226 224 221 221 220 218 214 214 217 221 221 217 212 209 207 207 208 211 214 214 212 213 216 222 232 241 250 282 343 2 6 8 11 9 359 336 291 264 277 314 347 355 1 18 36 38 44 54 58 61 63 62 62 64 64 60 59 60 61